Location: ??????
(35.9589°N, 23.2071°E)
Time: 10:21:50
(UTC+00:00)

Daily predictions for brighter satellites

Satellite Brightness Start Highest point End
(mag) Time Altitude Azimuth Time Altitude Azimuth Time Altitude Azimuth
SJ-12 4.3 15:41:18 10° SE 15:44:45 34° ENE 15:48:12 10° N
IGS 5A 3.4 15:40:58 10° SSE 15:44:57 86° W 15:48:57 10° NNW
COSMO-SKYMED 1 4.0 15:47:20 10° NE 15:49:58 16° E 15:52:36 10° SE
SL-4 R/B 3.7 15:47:28 10° WNW 15:50:35 32° SW 15:53:49 10° SSE
Cosmos 540 Rocket 4.2 15:48:11 10° N 15:52:42 30° ENE 15:57:09 10° SE
Cosmos 1400 Rocket 4.2 15:50:28 10° SE 15:53:01 17° E 15:55:34 10° NE
CORIOLIS 4.1 15:49:17 10° SSE 15:54:37 79° ENE 15:59:59 10° N
Cosmos 1763 Rocket 3.8 15:53:08 10° N 15:58:02 41° ENE 16:02:50 10° SE
Cosmos 1975 Rocket 3.0 15:54:46 10° N 15:59:07 74° E 16:03:29 10° SSE
IRS-1C 4.1 15:54:44 10° SSE 15:59:59 67° ENE 16:05:16 10° N
Cosmos 2151 Rocket 4.4 15:57:01 10° SSE 16:00:52 29° E 16:04:44 10° NNE
SMAP 3.1 15:56:32 10° SSE 16:01:10 87° E 16:05:50 10° NNW
Cosmos 1812 2.3 15:58:31 10° SSE 16:01:18 43° E 16:04:04 10° NNE
OAO 2 Rocket 3.4 15:57:03 10° W 16:02:03 82° S 16:06:56 11° E
Cosmos 44 Rocket 3.4 15:57:25 10° SSW 16:02:08 79° WNW 16:07:01 10° NNE
Cosmos 1943 Rocket 2.3 15:58:19 10° SSW 16:03:56 81° WNW 16:09:34 10° NNE
OAO 3 Rocket 3.2 16:00:02 10° WSW 16:04:43 76° S 16:08:48 13° E
Cosmos 2058 3.6 16:07:11 10° NNE 16:10:39 29° ENE 16:14:07 10° SE
Okean 1 Rocket 4.2 16:07:33 10° SE 16:11:01 23° E 16:14:30 10° NE
Aureole 3 Rocket 2.1 16:08:31 10° S 16:11:38 69° E 16:14:40 10° NNE
Cosmos 2278 Rocket 2.5 16:06:45 10° SSW 16:12:23 73° WNW 16:18:03 10° NNE
CZ-2D R/B 4.3 16:09:19 10° SE 16:12:49 28° ENE 16:16:22 10° NNE
Landsat 7 3.7 16:09:01 10° SSE 16:13:38 84° ENE 16:18:19 10° N
Cosmos 2082 Rocket 3.0 16:09:43 10° N 16:14:30 28° ENE 16:19:17 10° ESE
SKYMED 2 3.7 16:11:40 10° NNE 16:15:55 51° E 16:20:08 10° S
Cosmos 1513 Rocket 4.5 16:13:26 10° S 16:19:43 80° E 16:26:09 10° N
Helios 1A Rocket 3.0 16:18:18 14° NE 16:20:54 36° E 16:24:03 10° SSE
Cosmos 2369 Rocket 3.8 16:20:12 10° SE 16:22:29 14° ESE 16:22:29 14° ESE
Cosmos 2251 Rocket 3.5 16:19:25 10° SSW 16:24:41 88° WNW 16:30:01 10° NNE
Cosmos 371 Rocket 3.4 16:25:43 10° S 16:30:20 51° ESE 16:34:20 14° NNE
YAOGAN 1 3.1 16:27:28 10° SE 16:31:18 33° ENE 16:35:08 10° N
Cosmos 304 Rocket 3.8 16:27:00 10° S 16:31:36 55° ESE 16:35:37 14° NNE
H-2A R/B 3.2 16:27:39 10° WSW 16:32:00 21° SSW 16:34:05 10° SSE
SJ 16-02 1.2 16:30:41 10° S 16:34:59 78° ESE 16:39:07 11° NNE
ATLAS 2AS CENTAUR R/B 4.5 16:35:54 10° NNE 16:37:53 11° NNE 16:38:09 11° NNE
Nadezhda 4 Rocket 4.1 16:33:01 10° N 16:39:07 53° E 16:45:08 10° SSE
BREEZE M DEB (TANK) 3.4 16:37:15 10° SSW 16:40:01 24° SSE 16:40:01 24° SSE
ARIANE 5 R/B 3.7 16:37:48 10° S 16:42:31 44° W 16:47:17 10° NNW
Resurs 1-3 3.8 16:39:00 10° SE 16:43:03 43° ENE 16:47:08 10° N
Cosmos 1656 Rocket 3.8 16:38:50 10° S 16:44:05 48° ESE 16:47:09 24° NE
COSMOS 2406 4.0 16:42:14 10° N 16:47:01 28° ENE 16:47:01 28° ENE
USA 215 3.2 16:42:26 10° SE 16:48:59 89° SW 16:55:34 10° NW
Cosmos 468 Rocket 3.8 16:46:06 10° NNW 16:51:16 68° ENE 16:56:22 10° SSE
Cosmos 1862 2.9 16:47:52 10° N 16:51:29 68° E 16:55:05 10° SSE
Iridium 45 4.3 16:48:44 10° S 16:52:17 64° E 16:52:31 61° ENE
MOS 1 Rocket 3.8 16:51:24 10° S 16:55:34 55° W 16:59:53 10° NNW
Okean 2 Rocket 3.1 16:51:13 10° S 16:55:36 82° W 17:00:00 10° N
Cosmos 676 Rocket 4.0 16:53:24 10° SSW 16:58:41 86° WNW 17:03:01 16° NNE
Cosmos 1428 Rocket 4.4 16:52:38 10° N 16:58:53 63° E 17:05:07 10° SSE
Cosmos 489 Rocket 4.5 16:54:39 10° N 17:00:47 55° ENE 17:06:49 10° SSE
H-II Stage 2 3.5 16:46:59 10° WSW 17:00:49 44° SSW 17:02:47 27° SE
Cosmos 1536 Rocket 3.4 16:56:32 10° N 17:00:58 88° E 17:05:20 10° S
ATLAS 5 CENTAUR R/B 4.0 17:01:37 10° WNW 17:05:58 29° WSW 17:11:04 10° S
Meteor 2-3 Rocket 3.8 17:01:36 10° N 17:07:05 47° ENE 17:07:28 47° E
OceanSat 1 rocket 4.5 17:04:19 10° SSE 17:09:11 78° ENE 17:14:01 10° N
USA 281 4.5 17:15:07 23° NNE 17:15:07 23° NNE 17:18:19 10° N
RESURS DK-1 3.8 17:10:30 10° NW 17:14:12 37° WSW 17:17:51 10° S
SPOT 1/Viking Rocket 4.1 17:09:21 10° S 17:14:24 58° W 17:19:31 10° NNW
BlueWalker 3 2.3 17:11:33 10° SW 17:14:33 58° WSW 17:14:33 58° WSW
Cosmos 968 Rocket 3.3 17:15:43 10° S 17:20:39 70° ESE 17:20:39 70° ESE
Cosmos 1634 Rocket 3.9 17:15:33 10° S 17:21:42 60° E 17:22:50 52° NE
COSMO-SKYMED 1 4.1 17:21:40 10° N 17:25:20 32° WNW 17:29:00 10° SW
DELTA 2 R/B (1) 3.4 17:21:50 10° WSW 17:27:23 85° SSE 17:27:39 81° ESE
OAO 2 Rocket 4.0 17:41:34 10° W 17:45:42 50° SW 17:45:42 50° SW
OAO 3 Rocket 4.2 17:43:07 10° W 17:46:13 41° W 17:46:13 41° W
Cosmos 1092 Rocket 4.2 17:49:41 10° N 18:02:36 - S 17:54:59 64° NNW
Cosmos 2082 Rocket 3.6 17:53:30 10° NW 17:58:33 35° WSW 18:03:35 10° SSW
Cosmos 2026 Rocket 4.4 17:56:23 10° NNW 18:02:21 58° W 18:08:23 10° S
Cosmos 2369 Rocket 3.2 18:00:49 10° SSW 18:04:20 39° SW 18:04:20 39° SW
Cosmos 2344 4.3 18:40:18 10° NW 18:47:32 68° NW 18:47:32 68° NW
